• In Netherlands
  • List of Countries
  • For 7 days
  • Water Temperature
  • Satellite Maps
  • Weather Map
  • Weather Widgets
  • user-avatar
    Login

    Hourly Weather Ashtarak

    Today, 28 February, Tuesday

    Time Temperature Precipitation Wind Pressure Humidity
    00:00 -4°C° 0 mm 1 mps 656 mmHg 94%
    01:00 -6°C° 0 mm 1 mps 656 mmHg 94%
    02:00 -6°C° 0 mm 1 mps 656 mmHg 94%
    03:00 -6°C° 0 mm 1 mps 656 mmHg 93%
    04:00 -6°C° 0 mm 1 mps 655 mmHg 93%
    05:00 -6°C° 0 mm 1 mps 655 mmHg 93%
    06:00 -7°C° 0 mm 1 mps 655 mmHg 93%
    07:00 -2°C° 0 mm 1 mps 657 mmHg 92%
    08:00 +1°C° 0 mm 1 mps 658 mmHg 90%
    09:00 +4°C° 0 mm 1 mps 659 mmHg 89%
    10:00 +5°C° 0 mm 1 mps 659 mmHg 89%
    11:00 +6°C° 0 mm 1 mps 659 mmHg 88%
    12:00 +6°C° 0 mm 1 mps 659 mmHg 88%
    13:00 +7°C° 0 mm 1 mps 659 mmHg 88%
    14:00 +7°C° 0 mm 1 mps 659 mmHg 88%
    15:00 +7°C° 0 mm 1 mps 659 mmHg 89%
    16:00 +4°C° 0 mm 1 mps 658 mmHg 91%
    17:00 +1°C° 0 mm 1 mps 657 mmHg 93%
    18:00 -2°C° 0 mm 1 mps 657 mmHg 95%
    19:00 -2°C° 0 mm 1 mps 657 mmHg 95%
    20:00 -3°C° 0 mm 1 mps 657 mmHg 95%
    21:00 -4°C° 0 mm 1 mps 658 mmHg 94%
    22:00 -4°C° 0 mm 1 mps 657 mmHg 94%
    23:00 -6°C° 0 mm 1 mps 657 mmHg 94%

    Tomorrow, 1 March, Wednesday

    Time Temperature Precipitation Wind Pressure Humidity
    00:00 -6°C° 0 mm 1 mps 657 mmHg 94%
    01:00 -7°C° 0 mm 1 mps 657 mmHg 94%
    02:00 -7°C° 0 mm 1 mps 657 mmHg 93%
    03:00 -8°C° 0 mm 1 mps 657 mmHg 93%
    04:00 -8°C° 0 mm 1 mps 657 mmHg 93%
    05:00 -7°C° 0 mm 1 mps 657 mmHg 93%
    06:00 -7°C° 0 mm 1 mps 657 mmHg 93%
    07:00 -3°C° 0 mm 1 mps 658 mmHg 90%
    08:00 +1°C° 0 mm 1 mps 660 mmHg 88%
    09:00 +5°C° 0 mm 1 mps 661 mmHg 85%
    10:00 +6°C° 0 mm 1 mps 661 mmHg 86%
    11:00 +7°C° 0 mm 1 mps 661 mmHg 86%
    12:00 +7°C° 0 mm 1 mps 660 mmHg 86%
    13:00 +8°C° 0 mm 1 mps 660 mmHg 86%
    14:00 +8°C° 0 mm 1 mps 659 mmHg 86%
    15:00 +8°C° 0 mm 1 mps 659 mmHg 86%
    16:00 +5°C° 0 mm 1 mps 658 mmHg 88%
    17:00 +3°C° 0 mm 1 mps 657 mmHg 90%
    18:00 0°C° 0 mm 1 mps 657 mmHg 92%
    19:00 0°C° 0 mm 1 mps 657 mmHg 92%
    20:00 -1°C° 0 mm 1 mps 657 mmHg 91%
    21:00 -1°C° 0 mm 1 mps 657 mmHg 90%
    22:00 -2°C° 0 mm 1 mps 656 mmHg 90%
    23:00 -3°C° 0 mm 1 mps 656 mmHg 90%

    Day after tomorrow, 2 March, Thursday

    Time Temperature Precipitation Wind Pressure Humidity
    00:00 -3°C° 0 mm 1 mps 656 mmHg 90%
    01:00 -4°C° 0 mm 1 mps 655 mmHg 90%
    02:00 -4°C° 0 mm 1 mps 655 mmHg 90%
    03:00 -4°C° 0 mm 1 mps 655 mmHg 90%
    04:00 -4°C° 0 mm 1 mps 655 mmHg 90%
    05:00 -4°C° 0 mm 1 mps 655 mmHg 89%
    06:00 -3°C° 0 mm 1 mps 655 mmHg 89%
    07:00 0°C° 0 mm 1 mps 656 mmHg 86%
    08:00 +3°C° 0 mm 1 mps 657 mmHg 84%
    09:00 +6°C° 0 mm 1 mps 658 mmHg 81%
    10:00 +7°C° 0 mm 1 mps 657 mmHg 80%
    11:00 +8°C° 0 mm 1 mps 657 mmHg 79%
    12:00 +8°C° 0 mm 1 mps 656 mmHg 77%
    13:00 +9°C° 0 mm 1 mps 656 mmHg 77%
    14:00 +9°C° 0 mm 1 mps 655 mmHg 77%
    15:00 +9°C° 0 mm 1 mps 655 mmHg 78%
    16:00 +7°C° 0 mm 1 mps 654 mmHg 81%
    17:00 +5°C° 0 mm 1 mps 654 mmHg 84%
    18:00 +3°C° 0 mm 1 mps 653 mmHg 88%
    19:00 +3°C° 0 mm 1 mps 654 mmHg 87%
    20:00 +2°C° 0 mm 1 mps 654 mmHg 87%
    21:00 +1°C° 0 mm 0 mps 654 mmHg 87%
    22:00 +2°C° 0 mm 1 mps 654 mmHg 87%
    23:00 +1°C° 0 mm 1 mps 654 mmHg 86%

    3 March, Friday

    Time Temperature Precipitation Wind Pressure Humidity
    00:00 +1°C° 0 mm 1 mps 654 mmHg 86%
    01:00 +1°C° 0.1 mm 1 mps 654 mmHg 87%
    02:00 0°C° 0.1 mm 0 mps 653 mmHg 88%
    03:00 0°C° 0.1 mm 0 mps 653 mmHg 89%
    04:00 0°C° 0.1 mm 0 mps 653 mmHg 90%
    05:00 0°C° 0.1 mm 0 mps 653 mmHg 91%
    06:00 0°C° 0.1 mm 0 mps 653 mmHg 92%
    07:00 +1°C° 0.1 mm 0 mps 654 mmHg 88%
    08:00 +3°C° 0.1 mm 0 mps 655 mmHg 84%
    09:00 +5°C° 0.1 mm 0 mps 655 mmHg 81%
    10:00 +7°C° 0.1 mm 1 mps 655 mmHg 80%
    11:00 +7°C° 0.1 mm 1 mps 655 mmHg 79%
    12:00 +8°C° 0.1 mm 1 mps 655 mmHg 79%
    13:00 +8°C° 0.1 mm 1 mps 655 mmHg 79%
    14:00 +8°C° 0.1 mm 1 mps 654 mmHg 80%
    15:00 +8°C° 0.1 mm 1 mps 654 mmHg 80%
    16:00 +7°C° 0.1 mm 1 mps 654 mmHg 84%
    17:00 +5°C° 0.1 mm 1 mps 654 mmHg 87%
    18:00 +4°C° 0.1 mm 1 mps 654 mmHg 91%
    19:00 +2°C° 0.1 mm 0 mps 654 mmHg 92%
    20:00 +2°C° 0.1 mm 0 mps 654 mmHg 92%
    21:00 +1°C° 0.1 mm 0 mps 654 mmHg 93%
    22:00 +1°C° 0.1 mm 0 mps 654 mmHg 93%
    23:00 0°C° 0.1 mm 0 mps 654 mmHg 93%

    4 March, Saturday

    Time Temperature Precipitation Wind Pressure Humidity
    00:00 0°C° 0.1 mm 0 mps 654 mmHg 93%
    01:00 0°C° 0.1 mm 0 mps 654 mmHg 93%
    02:00 0°C° 0.1 mm 0 mps 654 mmHg 93%
    03:00 0°C° 0.1 mm 0 mps 654 mmHg 93%
    04:00 0°C° 0.1 mm 0 mps 654 mmHg 93%
    05:00 0°C° 0.1 mm 0 mps 655 mmHg 93%
    06:00 0°C° 0.1 mm 0 mps 655 mmHg 93%
    07:00 +2°C° 0.1 mm 0 mps 656 mmHg 89%
    08:00 +4°C° 0.1 mm 0 mps 657 mmHg 84%
    09:00 +6°C° 0.1 mm 0 mps 657 mmHg 79%
    10:00 +6°C° 0.2 mm 0 mps 657 mmHg 78%
    11:00 +7°C° 0.2 mm 0 mps 657 mmHg 77%
    12:00 +9°C° 0.2 mm 1 mps 657 mmHg 75%
    13:00 +9°C° 0.3 mm 1 mps 657 mmHg 76%
    14:00 +9°C° 0.3 mm 1 mps 657 mmHg 76%
    15:00 +9°C° 0.3 mm 1 mps 656 mmHg 77%
    16:00 +8°C° 0.3 mm 1 mps 656 mmHg 81%
    17:00 +6°C° 0.3 mm 1 mps 656 mmHg 85%
    18:00 +5°C° 0.3 mm 1 mps 656 mmHg 89%
    19:00 +5°C° 0.3 mm 1 mps 657 mmHg 89%
    20:00 +5°C° 0.3 mm 1 mps 657 mmHg 89%
    21:00 +4°C° 0.3 mm 1 mps 658 mmHg 89%
    22:00 +4°C° 0.2 mm 1 mps 658 mmHg 90%
    23:00 +4°C° 0.2 mm 1 mps 658 mmHg 90%

    5 March, Sunday

    Time Temperature Precipitation Wind Pressure Humidity
    00:00 +4°C° 0.2 mm 1 mps 658 mmHg 91%
    01:00 +3°C° 0.2 mm 1 mps 658 mmHg 91%
    02:00 +3°C° 0.2 mm 1 mps 658 mmHg 91%
    03:00 +3°C° 0.2 mm 1 mps 658 mmHg 91%
    04:00 +3°C° 0.1 mm 1 mps 658 mmHg 92%
    05:00 +3°C° 0.1 mm 1 mps 658 mmHg 92%
    06:00 +2°C° 0.1 mm 1 mps 659 mmHg 92%
    07:00 +4°C° 0.1 mm 1 mps 659 mmHg 88%
    08:00 +5°C° 0.1 mm 1 mps 660 mmHg 84%
    09:00 +6°C° 0.1 mm 1 mps 660 mmHg 79%
    10:00 +7°C° 0.2 mm 1 mps 660 mmHg 77%
    11:00 +8°C° 0.2 mm 1 mps 660 mmHg 76%
    12:00 +8°C° 0.2 mm 1 mps 660 mmHg 74%
    13:00 +9°C° 0.2 mm 1 mps 660 mmHg 74%
    14:00 +9°C° 0.2 mm 1 mps 660 mmHg 74%
    15:00 +9°C° 0.2 mm 1 mps 659 mmHg 74%
    16:00 +6°C° 0.2 mm 0 mps 659 mmHg 79%
    17:00 +5°C° 0.2 mm 0 mps 659 mmHg 83%
    18:00 +3°C° 0.2 mm 0 mps 659 mmHg 88%
    19:00 +3°C° 0.1 mm 0 mps 659 mmHg 89%
    20:00 +3°C° 0.1 mm 0 mps 659 mmHg 90%
    21:00 +3°C° 0.1 mm 1 mps 660 mmHg 92%
    22:00 +3°C° 0.1 mm 1 mps 660 mmHg 92%
    23:00 +3°C° 0.1 mm 1 mps 660 mmHg 92%
    Show more